Time,TemperatureF,DewpointF,PressureIn,WindDirection,WindDirectionDegrees,WindSpeedMPH,WindSpeedGustMPH,Humidity,HourlyPrecipIn,Conditions,Clouds,dailyrainin,SolarRadiationWatts/m^2,SoftwareType,DateUTC
2013-06-11 00:00:00,56.2,52.4,29.95,NW,309,0.0,0.0,87,0.00,,,0.00,0,Wunderground v.1.15,2013-06-11 07:00:00,
2013-06-11 00:10:00,56.2,50.1,29.95,NW,309,0.0,0.0,80,0.00,,,0.00,0,Wunderground v.1.15,2013-06-11 07:10:00,
2013-06-11 00:20:00,56.1,47.9,29.95,NW,309,0.0,0.0,74,0.00,,,0.00,0,Wunderground v.1.15,2013-06-11 07:20:00,
2013-06-11 00:25:00,56.1,47.9,29.95,NW,309,1.0,1.0,74,0.00,,,0.00,0,Wunderground v.1.15,2013-06-11 07:25:00,
2013-06-11 00:30:00,56.2,47.3,29.95,NW,309,0.0,0.0,72,0.00,,,0.00,0,Wunderground v.1.15,2013-06-11 07:30:00,
2013-06-11 00:35:00,56.1,47.2,29.95,NW,309,0.0,0.0,72,0.00,,,0.00,0,Wunderground v.1.15,2013-06-11 07:35:00,
2013-06-11 00:40:00,56.0,46.7,29.95,NW,309,0.0,0.0,71,0.00,,,0.00,0,Wunderground v.1.15,2013-06-11 07:40:00,
2013-06-11 00:50:00,55.9,46.6,29.95,NW,309,0.0,0.0,71,0.00,,,0.00,0,Wunderground v.1.15,2013-06-11 07:50:00,
2013-06-11 00:55:00,55.9,46.6,29.95,NW,309,0.0,0.0,71,0.00,,,0.00,0,Wunderground v.1.15,2013-06-11 07:55:00,
2013-06-11 01:05:00,55.8,46.2,29.95,NW,309,0.0,0.0,70,0.00,,,0.00,0,Wunderground v.1.15,2013-06-11 08:05:00,
2013-06-11 01:10:00,55.6,46.0,29.95,NW,309,0.0,0.0,70,0.00,,,0.00,0,Wunderground v.1.15,2013-06-11 08:10:00,
2013-06-11 01:20:00,55.4,45.4,29.95,NW,317,0.0,0.0,69,0.00,,,0.00,0,Wunderground v.1.15,2013-06-11 08:20:00,
2013-06-11 01:25:00,55.3,45.7,29.95,NW,317,1.0,1.0,70,0.00,,,0.00,0,Wunderground v.1.15,2013-06-11 08:25:00,
2013-06-11 01:30:00,55.2,46.3,29.96,NW,317,0.0,0.0,72,0.00,,,0.00,0,Wunderground v.1.15,2013-06-11 08:30:00,
2013-06-11 01:35:00,55.2,49.5,29.95,NW,317,0.0,0.0,81,0.00,,,0.00,0,Wunderground v.1.15,2013-06-11 08:35:00,
2013-06-11 01:40:00,55.1,45.5,29.96,NW,317,0.0,0.0,70,0.00,,,0.00,0,Wunderground v.1.15,2013-06-11 08:40:00,
2013-06-11 01:45:00,55.0,45.4,29.95,NW,317,1.0,1.0,70,0.00,,,0.00,0,Wunderground v.1.15,2013-06-11 08:45:00,
2013-06-11 01:50:00,55.0,45.4,29.95,WNW,297,2.0,2.0,70,0.00,,,0.00,0,Wunderground v.1.15,2013-06-11 08:50:00,
2013-06-11 02:00:00,54.8,47.0,29.95,NW,323,1.0,1.0,75,0.00,,,0.00,0,Wunderground v.1.15,2013-06-11 09:00:00,
2013-06-11 02:05:00,54.6,42.7,29.95,NW,314,2.0,2.0,64,0.00,,,0.00,0,Wunderground v.1.15,2013-06-11 09:05:00,
2013-06-11 02:15:00,54.5,43.8,29.95,NW,313,1.0,1.0,67,0.00,,,0.00,0,Wunderground v.1.15,2013-06-11 09:15:00,
2013-06-11 02:20:00,54.5,44.5,29.95,NW,309,1.0,1.0,69,0.00,,,0.00,0,Wunderground v.1.15,2013-06-11 09:20:00,
2013-06-11 02:25:00,54.4,44.8,29.95,WNW,298,2.0,2.0,70,0.00,,,0.00,0,Wunderground v.1.15,2013-06-11 09:25:00,
2013-06-11 02:30:00,54.4,44.8,29.95,NW,309,2.0,2.0,70,0.00,,,0.00,0,Wunderground v.1.15,2013-06-11 09:30:00,
2013-06-11 02:40:00,54.5,44.9,29.95,NW,324,3.0,3.0,70,0.00,,,0.00,0,Wunderground v.1.15,2013-06-11 09:40:00,
2013-06-11 02:45:00,54.5,44.9,29.95,WNW,294,0.0,0.0,70,0.00,,,0.00,0,Wunderground v.1.15,2013-06-11 09:45:00,
2013-06-11 02:55:00,54.6,45.0,29.95,WNW,294,0.0,0.0,70,0.00,,,0.00,0,Wunderground v.1.15,2013-06-11 09:55:00,
2013-06-11 03:00:00,54.6,45.0,29.95,NW,324,2.0,2.0,70,0.00,,,0.00,0,Wunderground v.1.15,2013-06-11 10:00:00,
2013-06-11 03:05:00,54.7,45.1,29.95,NW,306,0.0,2.0,70,0.00,,,0.00,0,Wunderground v.1.15,2013-06-11 10:05:00,
2013-06-11 03:10:00,54.7,45.1,29.94,WNW,297,0.0,0.0,70,0.00,,,0.00,0,Wunderground v.1.15,2013-06-11 10:10:00,
2013-06-11 03:15:00,54.7,45.1,29.94,WNW,293,2.0,2.0,70,0.00,,,0.00,0,Wunderground v.1.15,2013-06-11 10:15:00,
2013-06-11 03:20:00,54.8,45.6,29.94,NW,305,0.0,0.0,71,0.00,,,0.00,0,Wunderground v.1.15,2013-06-11 10:20:00,
2013-06-11 03:25:00,54.8,45.6,29.94,NW,305,0.0,0.0,71,0.00,,,0.00,0,Wunderground v.1.15,2013-06-11 10:25:00,
2013-06-11 03:30:00,54.8,45.6,29.94,NW,305,0.0,0.0,71,0.00,,,0.00,0,Wunderground v.1.15,2013-06-11 10:30:00,
2013-06-11 03:40:00,54.9,45.7,29.94,NW,305,0.0,0.0,71,0.00,,,0.00,0,Wunderground v.1.15,2013-06-11 10:40:00,
2013-06-11 03:45:00,54.9,45.7,29.94,NW,305,0.0,0.0,71,0.00,,,0.00,0,Wunderground v.1.15,2013-06-11 10:45:00,
2013-06-11 03:50:00,54.9,45.7,29.94,NW,305,0.0,0.0,71,0.00,,,0.00,0,Wunderground v.1.15,2013-06-11 10:50:00,
2013-06-11 03:55:00,55.0,45.8,29.94,NW,305,0.0,0.0,71,0.00,,,0.00,0,Wunderground v.1.15,2013-06-11 10:55:00,
2013-06-11 04:00:00,55.0,45.8,29.94,NW,305,1.0,1.0,71,0.00,,,0.00,0,Wunderground v.1.15,2013-06-11 11:00:00,
2013-06-11 04:05:00,55.0,45.8,29.94,NW,305,1.0,1.0,71,0.00,,,0.00,0,Wunderground v.1.15,2013-06-11 11:05:00,
2013-06-11 04:10:00,55.0,45.4,29.93,NW,305,0.0,0.0,70,0.00,,,0.00,0,Wunderground v.1.15,2013-06-11 11:10:00,
2013-06-11 04:15:00,55.0,45.8,29.93,NW,306,1.0,1.0,71,0.00,,,0.00,0,Wunderground v.1.15,2013-06-11 11:15:00,
2013-06-11 04:20:00,55.1,45.9,29.93,NW,306,0.0,0.0,71,0.00,,,0.00,0,Wunderground v.1.15,2013-06-11 11:20:00,
2013-06-11 04:25:00,55.1,45.5,29.94,NW,306,0.0,0.0,70,0.00,,,0.00,0,Wunderground v.1.15,2013-06-11 11:25:00,
2013-06-11 04:30:00,55.1,45.5,29.94,NW,306,0.0,0.0,70,0.00,,,0.00,0,Wunderground v.1.15,2013-06-11 11:30:00,
2013-06-11 04:35:00,55.1,45.5,29.94,NW,306,1.0,1.0,70,0.00,,,0.00,0,Wunderground v.1.15,2013-06-11 11:35:00,
2013-06-11 04:40:00,55.1,45.9,29.94,NW,306,0.0,0.0,71,0.00,,,0.00,0,Wunderground v.1.15,2013-06-11 11:40:00,
2013-06-11 04:45:00,55.2,46.0,29.94,NW,306,1.0,1.0,71,0.00,,,0.00,0,Wunderground v.1.15,2013-06-11 11:45:00,
2013-06-11 04:55:00,55.2,45.6,29.94,NW,306,1.0,1.0,70,0.00,,,0.00,0,Wunderground v.1.15,2013-06-11 11:55:00,
2013-06-11 05:00:00,55.3,45.7,29.94,NW,306,0.0,0.0,70,0.00,,,0.00,0,Wunderground v.1.15,2013-06-11 12:00:00,
2013-06-11 05:05:00,55.3,46.1,29.94,NW,306,3.0,3.0,71,0.00,,,0.00,0,Wunderground v.1.15,2013-06-11 12:05:00,
2013-06-11 05:10:00,55.3,46.1,29.93,NNW,327,2.0,2.0,71,0.00,,,0.00,0,Wunderground v.1.15,2013-06-11 12:10:00,
2013-06-11 05:20:00,55.4,45.8,29.94,NNW,335,2.0,2.0,70,0.00,,,0.00,0,Wunderground v.1.15,2013-06-11 12:20:00,
2013-06-11 05:25:00,55.3,45.7,29.93,NNW,335,2.0,2.0,70,0.00,,,0.00,0,Wunderground v.1.15,2013-06-11 12:25:00,
2013-06-11 05:30:00,55.3,45.7,29.93,NNW,335,0.0,0.0,70,0.00,,,0.00,0,Wunderground v.1.15,2013-06-11 12:30:00,
2013-06-11 05:35:00,55.3,45.7,29.94,NNW,335,0.0,0.0,70,0.00,,,0.00,0,Wunderground v.1.15,2013-06-11 12:35:00,
2013-06-11 05:40:00,55.3,45.7,29.94,NNW,335,0.0,0.0,70,0.00,,,0.00,0,Wunderground v.1.15,2013-06-11 12:40:00,
2013-06-11 05:45:00,55.4,45.8,29.95,NNW,335,0.0,0.0,70,0.00,,,0.00,0,Wunderground v.1.15,2013-06-11 12:45:00,
2013-06-11 05:55:00,55.5,45.9,29.94,NNW,335,0.0,0.0,70,0.00,,,0.00,0,Wunderground v.1.15,2013-06-11 12:55:00,
2013-06-11 06:00:00,55.5,45.9,29.94,NNW,335,0.0,0.0,70,0.00,,,0.00,0,Wunderground v.1.15,2013-06-11 13:00:00,
2013-06-11 06:05:00,55.5,45.9,29.95,NNW,335,0.0,0.0,70,0.00,,,0.00,0,Wunderground v.1.15,2013-06-11 13:05:00,
2013-06-11 06:10:00,55.5,45.9,29.95,NNW,335,0.0,0.0,70,0.00,,,0.00,0,Wunderground v.1.15,2013-06-11 13:10:00,
2013-06-11 06:20:00,55.7,46.1,29.95,NNW,335,1.0,1.0,70,0.00,,,0.00,0,Wunderground v.1.15,2013-06-11 13:20:00,
2013-06-11 06:25:00,55.7,46.1,29.95,NNW,335,1.0,1.0,70,0.00,,,0.00,0,Wunderground v.1.15,2013-06-11 13:25:00,
2013-06-11 06:30:00,55.7,46.1,29.95,NNW,335,2.0,2.0,70,0.00,,,0.00,0,Wunderground v.1.15,2013-06-11 13:30:00,
2013-06-11 06:35:00,55.8,46.2,29.95,NNW,335,1.0,2.0,70,0.00,,,0.00,0,Wunderground v.1.15,2013-06-11 13:35:00,
2013-06-11 06:40:00,55.9,46.3,29.96,NNW,335,1.0,1.0,70,0.00,,,0.00,0,Wunderground v.1.15,2013-06-11 13:40:00,
2013-06-11 06:45:00,56.0,46.4,29.96,NNW,335,2.0,2.0,70,0.00,,,0.00,0,Wunderground v.1.15,2013-06-11 13:45:00,
2013-06-11 06:54:00,56.2,46.5,29.96,NNW,335,2.0,2.0,70,0.00,,,0.00,0,Wunderground v.1.15,2013-06-11 13:54:00,
2013-06-11 07:00:00,56.2,46.5,29.96,NNW,335,0.0,0.0,70,0.00,,,0.00,0,Wunderground v.1.15,2013-06-11 14:00:00,
2013-06-11 07:05:00,56.3,46.6,29.96,NNW,335,0.0,0.0,70,0.00,,,0.00,0,Wunderground v.1.15,2013-06-11 14:05:00,
2013-06-11 07:10:00,56.5,46.8,29.96,NNW,335,0.0,0.0,70,0.00,,,0.00,0,Wunderground v.1.15,2013-06-11 14:10:00,
2013-06-11 07:20:00,56.7,47.0,29.96,NNW,335,2.0,2.0,70,0.00,,,0.00,0,Wunderground v.1.15,2013-06-11 14:20:00,
2013-06-11 07:25:00,56.8,47.1,29.96,NNW,335,2.0,2.0,70,0.00,,,0.00,0,Wunderground v.1.15,2013-06-11 14:25:00,
2013-06-11 07:30:00,57.0,47.3,29.96,NNW,335,1.0,1.0,70,0.00,,,0.00,0,Wunderground v.1.15,2013-06-11 14:30:00,
2013-06-11 07:35:00,57.2,47.1,29.96,NNW,335,1.0,1.0,69,0.00,,,0.00,0,Wunderground v.1.15,2013-06-11 14:35:00,
2013-06-11 07:40:00,57.3,47.2,29.96,NNW,335,0.0,0.0,69,0.00,,,0.00,0,Wunderground v.1.15,2013-06-11 14:40:00,
2013-06-11 07:45:00,57.4,47.3,29.96,NNW,335,0.0,0.0,69,0.00,,,0.00,0,Wunderground v.1.15,2013-06-11 14:45:00,
2013-06-11 07:50:00,57.4,47.3,29.97,SW,214,2.0,2.0,69,0.00,,,0.00,0,Wunderground v.1.15,2013-06-11 14:50:00,
2013-06-11 07:55:00,57.2,47.1,29.97,SW,214,1.0,2.0,69,0.00,,,0.00,0,Wunderground v.1.15,2013-06-11 14:55:00,
2013-06-11 08:00:00,57.3,47.2,29.97,SW,214,2.0,2.0,69,0.00,,,0.00,0,Wunderground v.1.15,2013-06-11 15:00:00,
2013-06-11 08:05:00,57.5,47.4,29.97,SW,214,1.0,2.0,69,0.00,,,0.00,0,Wunderground v.1.15,2013-06-11 15:05:00,
2013-06-11 08:15:00,58.0,47.9,29.97,NNW,333,0.0,0.0,69,0.00,,,0.00,0,Wunderground v.1.15,2013-06-11 15:15:00,
2013-06-11 08:20:00,58.2,48.1,29.97,WSW,249,1.0,1.0,69,0.00,,,0.00,0,Wunderground v.1.15,2013-06-11 15:20:00,
2013-06-11 08:25:00,58.3,47.8,29.97,SSW,200,3.0,3.0,68,0.00,,,0.00,0,Wunderground v.1.15,2013-06-11 15:25:00,
2013-06-11 08:30:00,58.5,48.0,29.97,NW,305,1.0,1.0,68,0.00,,,0.00,0,Wunderground v.1.15,2013-06-11 15:30:00,
2013-06-11 08:35:00,58.8,48.3,29.97,WSW,254,0.0,1.0,68,0.00,,,0.00,0,Wunderground v.1.15,2013-06-11 15:35:00,
2013-06-11 08:40:00,59.2,48.6,29.97,West,259,1.0,1.0,68,0.00,,,0.00,0,Wunderground v.1.15,2013-06-11 15:40:00,
2013-06-11 08:50:00,60.3,49.3,29.97,SW,228,0.0,0.0,67,0.00,,,0.00,0,Wunderground v.1.15,2013-06-11 15:50:00,
2013-06-11 09:00:00,61.4,49.9,29.97,WNW,298,2.0,2.0,66,0.00,,,0.00,0,Wunderground v.1.15,2013-06-11 16:00:00,
2013-06-11 09:04:00,61.8,47.8,29.97,WNW,301,2.0,2.0,60,0.00,,,0.00,0,Wunderground v.1.15,2013-06-11 16:04:00,
2013-06-11 09:10:00,62.1,47.6,29.97,NW,314,0.0,0.0,59,0.00,,,0.00,0,Wunderground v.1.15,2013-06-11 16:10:00,
2013-06-11 09:15:00,62.5,48.0,29.98,WSW,257,1.0,1.0,59,0.00,,,0.00,0,Wunderground v.1.15,2013-06-11 16:15:00,
2013-06-11 09:20:00,62.7,47.7,29.97,NW,308,0.0,0.0,58,0.00,,,0.00,0,Wunderground v.1.15,2013-06-11 16:20:00,
2013-06-11 09:25:00,63.2,48.2,29.98,South,189,0.0,0.0,58,0.00,,,0.00,0,Wunderground v.1.15,2013-06-11 16:25:00,
2013-06-11 09:30:00,63.8,48.7,29.98,SW,220,5.0,5.0,58,0.00,,,0.00,0,Wunderground v.1.15,2013-06-11 16:30:00,
2013-06-11 09:40:00,64.2,49.1,29.98,South,188,2.0,2.0,58,0.00,,,0.00,0,Wunderground v.1.15,2013-06-11 16:40:00,
2013-06-11 09:45:00,64.6,49.0,29.98,SW,223,0.0,2.0,57,0.00,,,0.00,0,Wunderground v.1.15,2013-06-11 16:45:00,
2013-06-11 09:50:00,65.3,55.7,29.98,South,185,1.0,1.0,71,0.00,,,0.00,0,Wunderground v.1.15,2013-06-11 16:50:00,
2013-06-11 09:59:00,65.7,54.8,29.98,South,178,0.0,0.0,68,0.00,,,0.00,0,Wunderground v.1.15,2013-06-11 16:59:00,
2013-06-11 10:05:00,66.0,49.8,29.98,WNW,297,3.0,3.0,56,0.00,,,0.00,0,Wunderground v.1.15,2013-06-11 17:05:00,
2013-06-11 10:10:00,65.9,49.8,29.98,WNW,302,2.0,2.0,56,0.00,,,0.00,0,Wunderground v.1.15,2013-06-11 17:10:00,
2013-06-11 10:19:00,65.7,49.6,29.98,NNW,339,3.0,3.0,56,0.00,,,0.00,0,Wunderground v.1.15,2013-06-11 17:19:00,
2013-06-11 10:25:00,65.8,49.7,29.98,NNW,328,3.0,3.0,56,0.00,,,0.00,0,Wunderground v.1.15,2013-06-11 17:25:00,
2013-06-11 10:30:00,65.8,49.7,29.98,North,357,6.0,6.0,56,0.00,,,0.00,0,Wunderground v.1.15,2013-06-11 17:30:00,
2013-06-11 10:40:00,66.0,49.8,29.98,NNW,348,5.0,5.0,56,0.00,,,0.00,0,Wunderground v.1.15,2013-06-11 17:40:00,
2013-06-11 10:49:00,67.2,51.4,29.98,NW,305,3.0,3.0,57,0.00,,,0.00,0,Wunderground v.1.15,2013-06-11 17:49:00,
2013-06-11 10:55:00,67.5,56.6,29.98,North,4,2.0,3.0,68,0.00,,,0.00,0,Wunderground v.1.15,2013-06-11 17:55:00,
2013-06-11 11:05:00,67.5,50.8,29.98,NW,309,3.0,4.0,55,0.00,,,0.00,0,Wunderground v.1.15,2013-06-11 18:05:00,
2013-06-11 11:10:00,67.9,54.0,29.98,NW,306,4.0,4.0,61,0.00,,,0.00,0,Wunderground v.1.15,2013-06-11 18:10:00,
2013-06-11 11:19:00,68.8,54.3,29.99,WNW,299,0.0,0.0,60,0.00,,,0.00,0,Wunderground v.1.15,2013-06-11 18:19:00,
2013-06-11 11:25:00,68.7,60.1,29.99,NW,326,3.0,3.0,74,0.00,,,0.00,0,Wunderground v.1.15,2013-06-11 18:25:00,
2013-06-11 11:30:00,68.3,59.7,29.99,NW,305,1.0,1.0,74,0.00,,,0.00,0,Wunderground v.1.15,2013-06-11 18:30:00,
2013-06-11 11:40:00,68.6,60.0,29.98,NNW,336,1.0,1.0,74,0.00,,,0.00,0,Wunderground v.1.15,2013-06-11 18:40:00,
2013-06-11 11:49:00,68.8,60.2,29.98,North,1,6.0,6.0,74,0.00,,,0.00,0,Wunderground v.1.15,2013-06-11 18:49:00,
2013-06-11 12:00:00,69.8,57.5,29.98,NW,309,4.0,4.0,65,0.00,,,0.00,0,Wunderground v.1.15,2013-06-11 19:00:00,
2013-06-11 12:10:00,70.0,58.5,29.98,WNW,294,0.0,0.0,67,0.00,,,0.00,0,Wunderground v.1.15,2013-06-11 19:10:00,
2013-06-11 12:19:00,71.2,63.2,29.98,WNW,296,2.0,2.0,76,0.00,,,0.00,0,Wunderground v.1.15,2013-06-11 19:19:00,
2013-06-11 12:25:00,72.0,63.3,29.97,SSW,194,0.0,2.0,74,0.00,,,0.00,0,Wunderground v.1.15,2013-06-11 19:25:00,
2013-06-11 12:30:00,72.1,62.6,29.97,NNW,338,5.0,5.0,72,0.00,,,0.00,0,Wunderground v.1.15,2013-06-11 19:30:00,
2013-06-11 12:40:00,72.3,62.8,29.97,SSW,193,4.0,4.0,72,0.00,,,0.00,0,Wunderground v.1.15,2013-06-11 19:40:00,
2013-06-11 12:50:00,73.4,63.8,29.97,West,270,2.0,2.0,72,0.00,,,0.00,0,Wunderground v.1.15,2013-06-11 19:50:00,
2013-06-11 13:00:00,74.6,59.3,29.97,NNW,327,2.0,2.0,59,0.00,,,0.00,0,Wunderground v.1.15,2013-06-11 20:00:00,
2013-06-11 13:10:00,74.4,63.1,29.97,ESE,108,2.0,2.0,68,0.00,,,0.00,0,Wunderground v.1.15,2013-06-11 20:10:00,
2013-06-11 13:15:00,75.4,63.7,29.96,NNW,336,3.0,3.0,67,0.00,,,0.00,0,Wunderground v.1.15,2013-06-11 20:15:00,
2013-06-11 13:20:00,75.9,64.2,29.96,WNW,294,0.0,0.0,67,0.00,,,0.00,0,Wunderground v.1.15,2013-06-11 20:20:00,
2013-06-11 13:30:00,76.5,64.3,29.96,SSE,163,5.0,5.0,66,0.00,,,0.00,0,Wunderground v.1.15,2013-06-11 20:30:00,
2013-06-11 13:39:00,76.3,64.1,29.96,WNW,298,1.0,1.0,66,0.00,,,0.00,0,Wunderground v.1.15,2013-06-11 20:39:00,
2013-06-11 13:45:00,76.3,63.7,29.95,NNW,336,0.0,1.0,65,0.00,,,0.00,0,Wunderground v.1.15,2013-06-11 20:45:00,
2013-06-11 13:50:00,76.8,64.1,29.95,NNW,332,1.0,1.0,65,0.00,,,0.00,0,Wunderground v.1.15,2013-06-11 20:50:00,
2013-06-11 13:59:00,76.8,64.6,29.95,SSW,213,0.0,0.0,66,0.00,,,0.00,0,Wunderground v.1.15,2013-06-11 20:59:00,
2013-06-11 14:05:00,77.0,63.9,29.95,NNW,335,1.0,1.0,64,0.00,,,0.00,0,Wunderground v.1.15,2013-06-11 21:05:00,
2013-06-11 14:10:00,77.1,64.4,29.95,NNW,327,4.0,4.0,65,0.00,,,0.00,0,Wunderground v.1.15,2013-06-11 21:10:00,
2013-06-11 14:20:00,76.8,64.1,29.94,South,180,1.0,1.0,65,0.00,,,0.00,0,Wunderground v.1.15,2013-06-11 21:20:00,
2013-06-11 14:44:00,78.1,64.9,29.94,SSW,199,8.0,8.0,64,0.00,,,0.00,0,Wunderground v.1.15,2013-06-11 21:44:00,
2013-06-11 14:49:00,77.8,64.6,29.94,SSW,206,1.0,8.0,64,0.00,,,0.00,0,Wunderground v.1.15,2013-06-11 21:49:00,
2013-06-11 14:55:00,77.8,65.1,29.94,SSW,199,1.0,1.0,65,0.00,,,0.00,0,Wunderground v.1.15,2013-06-11 21:55:00,
2013-06-11 15:00:00,78.4,65.2,29.94,South,190,0.0,0.0,64,0.00,,,0.00,0,Wunderground v.1.15,2013-06-11 22:00:00,
2013-06-11 16:44:00,76.1,63.5,29.92,SSW,199,1.0,6.0,65,0.00,,,0.00,0,Wunderground v.1.15,2013-06-11 23:44:00,
2013-06-11 16:50:00,75.9,63.3,29.92,West,262,1.0,1.0,65,0.00,,,0.00,0,Wunderground v.1.15,2013-06-11 23:50:00,
2013-06-11 17:00:00,75.4,63.2,29.92,SW,217,3.0,3.0,66,0.00,,,0.00,0,Wunderground v.1.15,2013-06-12 00:00:00,
2013-06-11 17:05:00,75.1,63.0,29.92,SW,223,1.0,3.0,66,0.00,,,0.00,0,Wunderground v.1.15,2013-06-12 00:05:00,
2013-06-11 17:15:00,74.9,62.8,29.92,SW,223,1.0,1.0,66,0.00,,,0.00,0,Wunderground v.1.15,2013-06-12 00:15:00,
2013-06-11 17:20:00,74.4,62.7,29.92,SW,214,2.0,2.0,67,0.00,,,0.00,0,Wunderground v.1.15,2013-06-12 00:20:00,
2013-06-11 17:29:00,74.3,63.1,29.92,WSW,243,0.0,0.0,68,0.00,,,0.00,0,Wunderground v.1.15,2013-06-12 00:29:00,
2013-06-11 17:35:00,73.8,62.6,29.92,SSW,198,5.0,5.0,68,0.00,,,0.00,0,Wunderground v.1.15,2013-06-12 00:35:00,
2013-06-11 17:40:00,72.9,62.5,29.92,SSW,204,2.0,2.0,70,0.00,,,0.00,0,Wunderground v.1.15,2013-06-12 00:40:00,
2013-06-11 17:50:00,73.2,63.2,29.92,SSE,152,1.0,1.0,71,0.00,,,0.00,0,Wunderground v.1.15,2013-06-12 00:50:00,
2013-06-11 18:00:00,73.1,62.7,29.92,SSW,207,2.0,2.0,70,0.00,,,0.00,0,Wunderground v.1.15,2013-06-12 01:00:00,
2013-06-11 18:09:00,72.8,62.8,29.92,SSW,193,0.0,0.0,71,0.00,,,0.00,0,Wunderground v.1.15,2013-06-12 01:09:00,
2013-06-11 18:15:00,73.0,63.0,29.92,WNW,289,0.0,0.0,71,0.00,,,0.00,0,Wunderground v.1.15,2013-06-12 01:15:00,
2013-06-11 18:20:00,73.0,63.0,29.92,SW,229,0.0,0.0,71,0.00,,,0.00,0,Wunderground v.1.15,2013-06-12 01:20:00,
2013-06-11 18:30:00,71.0,61.1,29.92,NW,315,2.0,2.0,71,0.00,,,0.00,0,Wunderground v.1.15,2013-06-12 01:30:00,
2013-06-11 18:39:00,69.8,60.4,29.92,WNW,291,4.0,4.0,72,0.00,,,0.00,0,Wunderground v.1.15,2013-06-12 01:39:00,
2013-06-11 18:45:00,69.2,60.2,29.92,WNW,296,4.0,4.0,73,0.00,,,0.00,0,Wunderground v.1.15,2013-06-12 01:45:00,
2013-06-11 18:50:00,68.8,59.8,29.92,NNW,332,4.0,4.0,73,0.00,,,0.00,0,Wunderground v.1.15,2013-06-12 01:50:00,
2013-06-11 19:00:00,68.3,59.7,29.92,NW,322,5.0,5.0,74,0.00,,,0.00,0,Wunderground v.1.15,2013-06-12 02:00:00,
2013-06-11 19:10:00,68.0,59.4,29.92,WNW,295,2.0,2.0,74,0.00,,,0.00,0,Wunderground v.1.15,2013-06-12 02:10:00,
2013-06-11 19:15:00,68.2,59.6,29.92,NNW,329,3.0,3.0,74,0.00,,,0.00,0,Wunderground v.1.15,2013-06-12 02:15:00,
2013-06-11 19:25:00,68.1,59.9,29.92,WNW,288,0.0,0.0,75,0.00,,,0.00,0,Wunderground v.1.15,2013-06-12 02:25:00,
2013-06-11 19:29:00,67.8,59.6,29.92,SSW,205,0.0,0.0,75,0.00,,,0.00,0,Wunderground v.1.15,2013-06-12 02:29:00,
2013-06-11 19:39:00,67.1,58.9,29.92,SSW,206,2.0,2.0,75,0.00,,,0.00,0,Wunderground v.1.15,2013-06-12 02:39:00,
2013-06-11 19:45:00,66.5,58.7,29.93,SSW,192,2.0,2.0,76,0.00,,,0.00,0,Wunderground v.1.15,2013-06-12 02:45:00,
2013-06-11 19:50:00,65.8,58.4,29.92,SSW,193,2.0,2.0,77,0.00,,,0.00,0,Wunderground v.1.15,2013-06-12 02:50:00,
2013-06-11 20:00:00,65.1,58.1,29.92,SSW,198,2.0,2.0,78,0.00,,,0.00,0,Wunderground v.1.15,2013-06-12 03:00:00,
2013-06-11 20:10:00,64.7,58.4,29.92,South,191,2.0,2.0,80,0.00,,,0.00,0,Wunderground v.1.15,2013-06-12 03:10:00,
2013-06-11 20:20:00,64.4,57.7,29.93,South,189,2.0,2.0,79,0.00,,,0.00,0,Wunderground v.1.15,2013-06-12 03:20:00,
2013-06-11 20:30:00,63.9,58.0,29.93,South,190,4.0,4.0,81,0.00,,,0.00,0,Wunderground v.1.15,2013-06-12 03:30:00,
2013-06-11 20:39:00,62.8,57.2,29.93,South,188,3.0,3.0,82,0.00,,,0.00,0,Wunderground v.1.15,2013-06-12 03:39:00,
2013-06-11 20:45:00,62.4,57.2,29.93,SSW,194,5.0,5.0,83,0.00,,,0.00,0,Wunderground v.1.15,2013-06-12 03:45:00,
2013-06-11 20:50:00,62.1,57.2,29.93,South,184,1.0,1.0,84,0.00,,,0.00,0,Wunderground v.1.15,2013-06-12 03:50:00,
2013-06-11 21:00:00,61.9,55.3,29.93,SSW,202,4.0,4.0,79,0.00,,,0.00,0,Wunderground v.1.15,2013-06-12 04:00:00,
2013-06-11 21:05:00,61.8,55.6,29.93,SW,236,0.0,4.0,80,0.00,,,0.00,0,Wunderground v.1.15,2013-06-12 04:05:00,
2013-06-11 21:10:00,61.7,54.4,29.93,South,180,1.0,1.0,77,0.00,,,0.00,0,Wunderground v.1.15,2013-06-12 04:10:00,
2013-06-11 21:19:00,61.5,55.3,29.93,SSW,203,0.0,0.0,80,0.00,,,0.00,0,Wunderground v.1.15,2013-06-12 04:19:00,
2013-06-11 21:25:00,61.4,55.5,29.94,SSW,195,2.0,2.0,81,0.00,,,0.00,0,Wunderground v.1.15,2013-06-12 04:25:00,
2013-06-11 21:30:00,61.3,55.8,29.94,South,191,4.0,4.0,82,0.00,,,0.00,0,Wunderground v.1.15,2013-06-12 04:30:00,
2013-06-11 21:40:00,61.2,55.3,29.94,SSW,201,4.0,4.0,81,0.00,,,0.00,0,Wunderground v.1.15,2013-06-12 04:40:00,
2013-06-11 21:44:00,61.3,55.4,29.94,SW,220,2.0,4.0,81,0.00,,,0.00,0,Wunderground v.1.15,2013-06-12 04:44:00,
2013-06-11 21:49:00,61.4,55.5,29.94,SSW,208,3.0,3.0,81,0.00,,,0.00,0,Wunderground v.1.15,2013-06-12 04:49:00,
2013-06-11 21:55:00,61.5,55.3,29.94,SSW,195,0.0,3.0,80,0.00,,,0.00,0,Wunderground v.1.15,2013-06-12 04:55:00,
2013-06-11 22:00:00,61.6,55.4,29.94,South,174,1.0,1.0,80,0.00,,,0.00,0,Wunderground v.1.15,2013-06-12 05:00:00,
2013-06-11 22:09:00,61.7,55.5,29.94,SSW,199,1.0,1.0,80,0.00,,,0.00,0,Wunderground v.1.15,2013-06-12 05:09:00,
2013-06-11 22:15:00,62.0,55.4,29.94,SSW,207,1.0,1.0,79,0.00,,,0.00,0,Wunderground v.1.15,2013-06-12 05:15:00,
2013-06-11 22:20:00,62.4,55.8,29.94,South,186,0.0,0.0,79,0.00,,,0.00,0,Wunderground v.1.15,2013-06-12 05:20:00,
2013-06-11 22:29:00,62.3,55.4,29.94,SSW,197,2.0,2.0,78,0.00,,,0.00,0,Wunderground v.1.15,2013-06-12 05:29:00,
2013-06-11 22:35:00,61.9,55.3,29.93,SSW,198,3.0,3.0,79,0.00,,,0.00,0,Wunderground v.1.15,2013-06-12 05:35:00,
2013-06-11 22:40:00,61.6,55.4,29.94,South,181,4.0,4.0,80,0.00,,,0.00,0,Wunderground v.1.15,2013-06-12 05:40:00,
2013-06-11 22:50:00,61.3,55.4,29.93,SSW,199,3.0,3.0,81,0.00,,,0.00,0,Wunderground v.1.15,2013-06-12 05:50:00,
2013-06-11 22:59:00,61.0,54.1,29.93,South,181,2.0,2.0,78,0.00,,,0.00,0,Wunderground v.1.15,2013-06-12 05:59:00,
2013-06-11 23:05:00,60.9,54.7,29.93,SSW,193,0.0,2.0,80,0.00,,,0.00,0,Wunderground v.1.15,2013-06-12 06:05:00,
2013-06-11 23:10:00,60.5,54.6,29.93,South,187,4.0,4.0,81,0.00,,,0.00,0,Wunderground v.1.15,2013-06-12 06:10:00,